N85NS KSAN-KPDX

Flight info

Callsign N85NS
Flight time N/A
Altitude 43000
Route PADRZ2 EHF DNOLD GALLO TMBRS4
Aircraft C750/M-SBDE3FGHRWXY/S

Departure

Time 2026-05-07 01:59
Airport San Diego International Airport (KSAN)

Arrival

Time N/A
Airport Portland International Airport (KPDX)
Time Latitude Longitude Altitude Speed Heading
2026-05-07 01:36 32.73328 -117.17802 17 ft 0 kts 18°
2026-05-07 01:55 32.73331 -117.17802 17 ft 1 kts
2026-05-07 01:55 32.73339 -117.17819 25 ft 4 kts 264°
2026-05-07 01:55 32.73340 -117.17857 28 ft 8 kts 281°
2026-05-07 01:55 32.73356 -117.17920 20 ft 7 kts 277°
2026-05-07 01:56 32.73335 -117.17952 22 ft 5 kts 208°
2026-05-07 01:56 32.73289 -117.17970 19 ft 8 kts 194°
2026-05-07 01:56 32.73231 -117.17962 17 ft 9 kts 130°
2026-05-07 01:56 32.73210 -117.17889 17 ft 10 kts 105°
2026-05-07 01:57 32.73187 -117.17795 21 ft 12 kts 105°
2026-05-07 01:57 32.73165 -117.17703 19 ft 11 kts 106°
2026-05-07 01:57 32.73144 -117.17616 20 ft 11 kts 105°
2026-05-07 01:57 32.73098 -117.17551 17 ft 10 kts 144°
2026-05-07 01:58 32.73039 -117.17518 19 ft 9 kts 175°
2026-05-07 01:58 32.73015 -117.17560 18 ft 8 kts 288°
2026-05-07 01:58 32.73057 -117.17733 16 ft 58 kts 286°
2026-05-07 01:58 32.73265 -117.18568 93 ft 132 kts 287°
2026-05-07 01:59 32.73566 -117.19706 446 ft 158 kts 289°
2026-05-07 01:59 32.73987 -117.20974 1036 ft 163 kts 300°
2026-05-07 01:59 32.74598 -117.22058 1875 ft 157 kts 305°
2026-05-07 01:59 32.75211 -117.23165 2540 ft 162 kts 304°
2026-05-07 02:00 32.75835 -117.24313 3125 ft 175 kts 303°
2026-05-07 02:00 32.76544 -117.25619 3488 ft 201 kts 303°
2026-05-07 02:00 32.77351 -117.27101 3860 ft 226 kts 304°
2026-05-07 02:00 32.78257 -117.28762 4272 ft 253 kts 303°
2026-05-07 02:01 32.79250 -117.30582 4975 ft 266 kts 304°
2026-05-07 02:01 32.80320 -117.32383 5887 ft 269 kts 310°
2026-05-07 02:01 32.81480 -117.34147 6759 ft 273 kts 310°
2026-05-07 02:01 32.82629 -117.35968 7650 ft 277 kts 309°
2026-05-07 02:02 32.83801 -117.37802 8615 ft 281 kts 311°
2026-05-07 02:02 32.85006 -117.39658 9551 ft 285 kts 311°
2026-05-07 02:02 32.86225 -117.41543 10300 ft 294 kts 311°
2026-05-07 02:02 32.87524 -117.43552 10479 ft 320 kts 311°
2026-05-07 02:03 32.88938 -117.45745 10525 ft 348 kts 311°
2026-05-07 02:03 32.90422 -117.48066 11093 ft 353 kts 310°
2026-05-07 02:03 32.91921 -117.50407 11767 ft 357 kts 311°
2026-05-07 02:03 32.93423 -117.52737 12404 ft 362 kts 311°
2026-05-07 02:04 32.94958 -117.55123 13069 ft 365 kts 311°
2026-05-07 02:04 32.96509 -117.57545 13709 ft 369 kts 311°
2026-05-07 02:04 32.98076 -117.59992 14301 ft 373 kts 311°
2026-05-07 02:04 32.99651 -117.62451 14905 ft 375 kts 311°
2026-05-07 02:05 33.01241 -117.64933 15470 ft 379 kts 311°
2026-05-07 02:05 33.02848 -117.67445 16037 ft 383 kts 311°
2026-05-07 02:05 33.04465 -117.69976 16677 ft 385 kts 311°
2026-05-07 02:05 33.06108 -117.72503 17286 ft 386 kts 314°
2026-05-07 02:06 33.08069 -117.74677 17875 ft 385 kts 324°
2026-05-07 02:06 33.10127 -117.76729 18528 ft 388 kts 323°
2026-05-07 02:06 33.12178 -117.78840 19116 ft 391 kts 323°
2026-05-07 02:06 33.14240 -117.80964 19719 ft 393 kts 323°
2026-05-07 02:07 33.16331 -117.83081 20340 ft 396 kts 323°
2026-05-07 02:07 33.20578 -117.87339 21526 ft 402 kts 325°
2026-05-07 02:07 33.22756 -117.89457 22132 ft 405 kts 324°
2026-05-07 02:08 33.24939 -117.91603 22746 ft 408 kts 324°
2026-05-07 02:08 33.27145 -117.93761 23355 ft 411 kts 325°
2026-05-07 02:08 33.29374 -117.95930 23902 ft 415 kts 325°
2026-05-07 02:08 33.31615 -117.98117 24392 ft 418 kts 325°
2026-05-07 02:09 33.33874 -118.00330 24877 ft 421 kts 325°
2026-05-07 02:09 33.35381 -118.01806 25201 ft 423 kts 325°
2026-05-07 02:09 33.37666 -118.04042 25685 ft 427 kts 325°
2026-05-07 02:09 33.39976 -118.06303 26155 ft 430 kts 325°
2026-05-07 02:10 33.42295 -118.08578 26635 ft 433 kts 325°
2026-05-07 02:10 33.44634 -118.10873 27121 ft 436 kts 325°
2026-05-07 02:10 33.46987 -118.13183 27602 ft 439 kts 325°
2026-05-07 02:10 33.49361 -118.15516 28079 ft 442 kts 325°
2026-05-07 02:11 33.52528 -118.18629 28719 ft 447 kts 325°
2026-05-07 02:11 33.54153 -118.20229 29035 ft 449 kts 325°
2026-05-07 02:11 33.56602 -118.22565 29461 ft 450 kts 329°
2026-05-07 02:11 33.59270 -118.24507 29893 ft 448 kts 337°
2026-05-07 02:12 33.62095 -118.26088 30298 ft 449 kts 340°
2026-05-07 02:12 33.64944 -118.27648 30711 ft 451 kts 340°
2026-05-07 02:12 33.67800 -118.29237 31126 ft 453 kts 339°
2026-05-07 02:12 33.70651 -118.30819 31748 ft 450 kts 340°
2026-05-07 02:13 33.73486 -118.32377 32354 ft 447 kts 340°
2026-05-07 02:13 33.76314 -118.33916 32966 ft 445 kts 341°
2026-05-07 02:13 33.79160 -118.35354 33521 ft 443 kts 342°
2026-05-07 02:13 33.82003 -118.36776 34098 ft 442 kts 342°
2026-05-07 02:14 33.84844 -118.38208 34584 ft 441 kts 341°
2026-05-07 02:14 33.87669 -118.39641 35098 ft 440 kts 341°
2026-05-07 02:14 33.90490 -118.41067 35619 ft 439 kts 341°
2026-05-07 02:14 33.93299 -118.42484 36148 ft 438 kts 341°
2026-05-07 02:15 33.96098 -118.43899 36684 ft 436 kts 341°
2026-05-07 02:15 33.98904 -118.45276 37191 ft 433 kts 344°
2026-05-07 02:15 34.01761 -118.46186 37669 ft 429 kts 353°
2026-05-07 02:15 34.04705 -118.46668 38209 ft 426 kts 356°
2026-05-07 02:16 34.07646 -118.47109 38747 ft 425 kts 356°
2026-05-07 02:16 34.10576 -118.47569 39172 ft 425 kts 355°
2026-05-07 02:16 34.13511 -118.48026 39529 ft 425 kts 355°
2026-05-07 02:16 34.16444 -118.48472 39916 ft 425 kts 355°
2026-05-07 02:17 34.19382 -118.48919 40267 ft 426 kts 355°
2026-05-07 02:17 34.22317 -118.49373 40652 ft 425 kts 355°
2026-05-07 02:17 34.25246 -118.49826 41048 ft 424 kts 355°
2026-05-07 02:17 34.28180 -118.50277 41403 ft 425 kts 355°
2026-05-07 02:18 34.31099 -118.50726 41556 ft 419 kts 355°
2026-05-07 02:18 34.33999 -118.51175 41058 ft 424 kts 355°
2026-05-07 02:18 34.39921 -118.52088 41607 ft 426 kts 355°
2026-05-07 02:19 34.42850 -118.52544 42031 ft 424 kts 355°
2026-05-07 02:19 34.45769 -118.52994 42402 ft 423 kts 354°
2026-05-07 02:19 34.48688 -118.53444 42753 ft 422 kts 354°
2026-05-07 02:19 34.51605 -118.53896 43065 ft 423 kts 354°
2026-05-07 02:20 34.57543 -118.54817 43063 ft 437 kts 354°
2026-05-07 02:20 34.63667 -118.55768 43072 ft 450 kts 354°
2026-05-07 02:21 34.69956 -118.56747 43075 ft 461 kts 354°
2026-05-07 02:21 34.76374 -118.57747 43085 ft 469 kts 354°
2026-05-07 02:22 34.82885 -118.58763 43082 ft 474 kts 354°
2026-05-07 02:22 34.89451 -118.59789 43129 ft 477 kts 354°
2026-05-07 02:23 34.96052 -118.60872 43113 ft 479 kts 351°
2026-05-07 02:23 35.02347 -118.63561 43153 ft 484 kts 335°
2026-05-07 02:24 35.07868 -118.68338 43151 ft 490 kts 323°
2026-05-07 02:24 35.13115 -118.73658 43151 ft 491 kts 323°
2026-05-07 02:25 35.18362 -118.78983 43097 ft 491 kts 323°
2026-05-07 02:25 35.23605 -118.84322 43079 ft 490 kts 323°
2026-05-07 02:26 35.28841 -118.89655 43089 ft 489 kts 323°
2026-05-07 02:26 35.34038 -118.94962 43084 ft 490 kts 323°
2026-05-07 02:27 35.39269 -119.00310 43089 ft 489 kts 323°
2026-05-07 02:27 35.44491 -119.05660 43078 ft 490 kts 322°
2026-05-07 02:28 35.50162 -119.10173 43066 ft 485 kts 338°
2026-05-07 02:28 35.56533 -119.12780 43089 ft 483 kts 345°
2026-05-07 02:29 35.62958 -119.15223 43089 ft 484 kts 344°
2026-05-07 02:29 35.69399 -119.17669 43082 ft 484 kts 344°
2026-05-07 02:30 35.75829 -119.20113 43077 ft 484 kts 344°
2026-05-07 02:30 35.82261 -119.22566 43092 ft 483 kts 344°
2026-05-07 02:31 35.88678 -119.25014 43080 ft 483 kts 344°
2026-05-07 02:31 35.95102 -119.27472 43087 ft 484 kts 344°
2026-05-07 02:32 36.01528 -119.29932 43093 ft 483 kts 343°
2026-05-07 02:32 36.07898 -119.32377 43094 ft 482 kts 343°
2026-05-07 02:33 36.14308 -119.34840 43088 ft 483 kts 343°
2026-05-07 02:33 36.20759 -119.37323 43097 ft 483 kts 343°
2026-05-07 02:34 36.27170 -119.39796 43097 ft 483 kts 343°
2026-05-07 02:34 36.33544 -119.42258 43080 ft 483 kts 343°
2026-05-07 02:35 36.39950 -119.44737 43089 ft 483 kts 343°
2026-05-07 02:35 36.46370 -119.47226 43079 ft 484 kts 343°
2026-05-07 02:36 36.52790 -119.49719 43080 ft 483 kts 343°
2026-05-07 02:36 36.59207 -119.52215 43081 ft 483 kts 343°
2026-05-07 02:37 36.65632 -119.54719 43088 ft 484 kts 343°
2026-05-07 02:37 36.72072 -119.57233 43090 ft 485 kts 343°
2026-05-07 02:38 36.78508 -119.59749 43091 ft 485 kts 343°
2026-05-07 02:38 36.84938 -119.62268 43093 ft 484 kts 343°
2026-05-07 02:39 36.91365 -119.64791 43092 ft 484 kts 343°
2026-05-07 02:39 36.97794 -119.67318 43095 ft 484 kts 342°
2026-05-07 02:40 37.04232 -119.69854 43093 ft 485 kts 342°
2026-05-07 02:40 37.10663 -119.72391 43093 ft 485 kts 342°
2026-05-07 02:41 37.17098 -119.74934 43099 ft 485 kts 342°
2026-05-07 02:41 37.23483 -119.77462 43101 ft 484 kts 342°
2026-05-07 02:42 37.29908 -119.80011 43102 ft 484 kts 342°
2026-05-07 02:42 37.36336 -119.82565 43109 ft 484 kts 342°
2026-05-07 02:43 37.42762 -119.85123 43110 ft 485 kts 342°
2026-05-07 02:43 37.49196 -119.87688 43115 ft 485 kts 342°
2026-05-07 02:44 37.55628 -119.90258 43121 ft 485 kts 342°
2026-05-07 02:44 37.62045 -119.92827 43137 ft 484 kts 342°
2026-05-07 02:45 37.68471 -119.95403 43129 ft 484 kts 342°
2026-05-07 02:45 37.74898 -119.97985 43133 ft 484 kts 342°
2026-05-07 02:46 37.81306 -120.00564 43138 ft 483 kts 341°
2026-05-07 02:46 37.87719 -120.03149 43136 ft 484 kts 341°
2026-05-07 02:47 37.94127 -120.05738 43146 ft 484 kts 341°
2026-05-07 02:47 38.00497 -120.08314 43143 ft 483 kts 341°
2026-05-07 02:48 38.06940 -120.10927 43152 ft 483 kts 341°
2026-05-07 02:48 38.13310 -120.13514 43149 ft 484 kts 341°
2026-05-07 02:49 38.19720 -120.16122 43149 ft 484 kts 341°
2026-05-07 02:49 38.26178 -120.18755 43166 ft 484 kts 341°
2026-05-07 02:50 38.32543 -120.21353 43170 ft 483 kts 341°
2026-05-07 02:50 38.38951 -120.23976 43172 ft 483 kts 341°
2026-05-07 02:51 38.45358 -120.26601 43171 ft 483 kts 341°
2026-05-07 02:51 38.51758 -120.29230 43176 ft 483 kts 341°
2026-05-07 02:52 38.58154 -120.31862 43175 ft 483 kts 341°
2026-05-07 02:52 38.64554 -120.34500 43176 ft 483 kts 341°
2026-05-07 02:53 38.70947 -120.37140 43181 ft 483 kts 341°
2026-05-07 02:53 38.77346 -120.39788 43176 ft 483 kts 341°
2026-05-07 02:54 38.83746 -120.42441 43175 ft 484 kts 341°
2026-05-07 02:54 38.90143 -120.45098 43171 ft 483 kts 341°
2026-05-07 02:55 38.96539 -120.47759 43174 ft 483 kts 341°
2026-05-07 02:55 39.02928 -120.50423 43189 ft 483 kts 340°
2026-05-07 02:56 39.09310 -120.53089 43207 ft 482 kts 340°
2026-05-07 02:56 39.14614 -120.55309 43209 ft 483 kts 340°
2026-05-07 02:57 39.21002 -120.57986 43254 ft 482 kts 340°
2026-05-07 02:57 39.27383 -120.60665 43255 ft 482 kts 340°
2026-05-07 02:58 39.33766 -120.63352 43250 ft 482 kts 340°
2026-05-07 02:58 39.40135 -120.66037 43141 ft 481 kts 340°
2026-05-07 02:59 39.46497 -120.68724 43138 ft 481 kts 340°
2026-05-07 02:59 39.52870 -120.71421 43141 ft 481 kts 340°
2026-05-07 03:00 39.59221 -120.74114 43138 ft 479 kts 340°
2026-05-07 03:00 39.65521 -120.76792 43141 ft 479 kts 340°
2026-05-07 03:01 39.71863 -120.79490 43143 ft 479 kts 340°
2026-05-07 03:01 39.78187 -120.82187 43135 ft 478 kts 340°
2026-05-07 03:02 39.84509 -120.84889 43126 ft 478 kts 340°
2026-05-07 03:02 39.90827 -120.87594 43127 ft 478 kts 340°
2026-05-07 03:03 39.97152 -120.90308 43122 ft 478 kts 340°
2026-05-07 03:03 40.03471 -120.93023 43119 ft 478 kts 340°
2026-05-07 03:04 40.09788 -120.95744 43116 ft 478 kts 340°
2026-05-07 03:04 40.16103 -120.98468 43119 ft 478 kts 340°
2026-05-07 03:05 40.22420 -121.01201 43128 ft 478 kts 340°
2026-05-07 03:05 40.28734 -121.03934 43125 ft 478 kts 340°
2026-05-07 03:06 40.35041 -121.06674 43129 ft 478 kts 340°
2026-05-07 03:06 40.41356 -121.09419 43128 ft 478 kts 340°
2026-05-07 03:07 40.47646 -121.12058 43125 ft 478 kts 341°
2026-05-07 03:07 40.54036 -121.14715 43127 ft 478 kts 340°
2026-05-07 03:08 40.60349 -121.17301 43138 ft 478 kts 341°
2026-05-07 03:08 40.66699 -121.19929 43134 ft 478 kts 340°
2026-05-07 03:09 40.73052 -121.22553 43132 ft 478 kts 340°
2026-05-07 03:09 40.79410 -121.25189 43125 ft 479 kts 340°
2026-05-07 03:10 40.85769 -121.27829 43115 ft 479 kts 340°
2026-05-07 03:10 40.92129 -121.30475 43103 ft 479 kts 340°
2026-05-07 03:11 40.98481 -121.33123 43095 ft 479 kts 340°
2026-05-07 03:11 41.04843 -121.35780 43096 ft 479 kts 340°
2026-05-07 03:12 41.11207 -121.38445 43106 ft 480 kts 340°
2026-05-07 03:12 41.17574 -121.41115 43108 ft 480 kts 340°
2026-05-07 03:13 41.23937 -121.43790 43116 ft 480 kts 341°
2026-05-07 03:13 41.30306 -121.46472 43113 ft 480 kts 340°
2026-05-07 03:14 41.36676 -121.49161 43122 ft 481 kts 340°
2026-05-07 03:15 41.46197 -121.53189 43122 ft 481 kts 341°
2026-05-07 03:15 41.52576 -121.55895 43124 ft 481 kts 341°
2026-05-07 03:16 41.58945 -121.58602 43128 ft 481 kts 341°
2026-05-07 03:16 41.65328 -121.61322 43118 ft 481 kts 341°
2026-05-07 03:17 41.71709 -121.64045 43124 ft 481 kts 341°
2026-05-07 03:17 41.78086 -121.66773 43132 ft 481 kts 341°
2026-05-07 03:18 41.84473 -121.69509 43139 ft 482 kts 341°
2026-05-07 03:18 41.90848 -121.72250 43130 ft 480 kts 341°
2026-05-07 03:19 41.97212 -121.74988 43147 ft 481 kts 341°
2026-05-07 03:19 42.03585 -121.77737 43158 ft 481 kts 341°
2026-05-07 03:20 42.09955 -121.80491 43147 ft 481 kts 341°
2026-05-07 03:20 42.16330 -121.83252 43156 ft 481 kts 341°
2026-05-07 03:21 42.22663 -121.86001 43102 ft 481 kts 341°
2026-05-07 03:21 42.29033 -121.88772 43122 ft 481 kts 341°
2026-05-07 03:22 42.35402 -121.91548 43128 ft 481 kts 341°
2026-05-07 03:22 42.41757 -121.94324 43114 ft 480 kts 341°
2026-05-07 03:23 42.48115 -121.97109 43124 ft 480 kts 341°
2026-05-07 03:23 42.54469 -121.99896 43122 ft 480 kts 341°
2026-05-07 03:24 42.60820 -122.02688 43124 ft 480 kts 341°
2026-05-07 03:24 42.67177 -122.05489 43122 ft 480 kts 341°
2026-05-07 03:25 42.73540 -122.08299 43128 ft 481 kts 341°
2026-05-07 03:25 42.79903 -122.11115 43129 ft 481 kts 341°
2026-05-07 03:26 42.86269 -122.13938 43130 ft 482 kts 340°
2026-05-07 03:26 42.92627 -122.16764 43114 ft 480 kts 340°
2026-05-07 03:27 42.98932 -122.19741 43119 ft 480 kts 339°
2026-05-07 03:27 43.05212 -122.22687 43120 ft 481 kts 340°
2026-05-07 03:28 43.11550 -122.25662 43139 ft 481 kts 339°
2026-05-07 03:28 43.17881 -122.28656 43146 ft 482 kts 340°
2026-05-07 03:29 43.24226 -122.31646 43144 ft 483 kts 339°
2026-05-07 03:29 43.30578 -122.34660 43139 ft 483 kts 339°
2026-05-07 03:30 43.36925 -122.37669 43142 ft 483 kts 339°
2026-05-07 03:30 43.43269 -122.40690 43154 ft 482 kts 339°
2026-05-07 03:31 43.49615 -122.43717 43142 ft 483 kts 339°
2026-05-07 03:31 43.55957 -122.46754 43147 ft 483 kts 339°
2026-05-07 03:32 43.62299 -122.49795 43177 ft 482 kts 339°
2026-05-07 03:32 43.68637 -122.52842 43155 ft 482 kts 339°
2026-05-07 03:33 43.74966 -122.55891 43161 ft 482 kts 339°
2026-05-07 03:33 43.81304 -122.58952 43165 ft 483 kts 339°
2026-05-07 03:34 43.87648 -122.62022 43172 ft 483 kts 339°
2026-05-07 03:34 43.93979 -122.65093 43191 ft 482 kts 339°
2026-05-07 03:35 44.00315 -122.68173 43184 ft 482 kts 339°
2026-05-07 03:35 44.06649 -122.71259 43185 ft 482 kts 339°
2026-05-07 03:36 44.13019 -122.74170 43165 ft 484 kts 345°
2026-05-07 03:36 44.19745 -122.74862 43176 ft 489 kts
2026-05-07 03:37 44.26528 -122.74168 43191 ft 489 kts
2026-05-07 03:37 44.33278 -122.73524 43196 ft 489 kts
2026-05-07 03:38 44.40063 -122.72839 43185 ft 487 kts
2026-05-07 03:38 44.46821 -122.72180 43178 ft 487 kts
2026-05-07 03:39 44.53581 -122.71504 43169 ft 487 kts
2026-05-07 03:39 44.60347 -122.70833 43180 ft 487 kts
2026-05-07 03:40 44.67099 -122.70153 43200 ft 486 kts
2026-05-07 03:40 44.73825 -122.69477 43183 ft 484 kts
2026-05-07 03:41 44.80546 -122.68800 43184 ft 485 kts
2026-05-07 03:41 44.87275 -122.68122 43177 ft 484 kts
2026-05-07 03:42 44.93995 -122.67446 43180 ft 484 kts
2026-05-07 03:42 45.00598 -122.66773 43185 ft 465 kts
2026-05-07 03:43 45.07069 -122.66124 43179 ft 468 kts
2026-05-07 03:43 45.13571 -122.65458 43178 ft 468 kts
2026-05-07 03:44 45.20071 -122.64785 43177 ft 469 kts
2026-05-07 03:44 45.26428 -122.62485 43175 ft 478 kts 19°
2026-05-07 03:45 45.32185 -122.57781 43183 ft 483 kts 28°
2026-05-07 03:45 45.37867 -122.52676 43187 ft 481 kts 28°
2026-05-07 03:45 45.40600 -122.50142 43156 ft 458 kts 31°
2026-05-07 03:46 45.42966 -122.47215 43159 ft 446 kts 41°